Location: Unspecified
(34.4950°S, 58.5160°W)
Time: 01:06:08
(UTC+00:00)

ATLAS 5 CENTAUR R/B - Pass Details

Date: 19 April 2026
Orbit: 360 x 1064 km, 63.3° (Epoch: 12 May)

Event Time Altitude Azimuth Distance (km) Brightness Sun altitude
Exits shadow 07:55:18 32° 193° (SSW) 1,762 3.7 -30.5°
Drops below altitude 10° 07:59:31 10° 164° (SSE) 2,860 5.2 -29.7°
Sets 08:02:18 0° 156° (SSE) 3,758 6.0 -29.1°
